Newberry, SC

4:37 PM EDT on April 20, 2018 (GMT -0400)
Newberry

Weather History for KEOE - July, 2013

Change the Weather History Date:

Friday, July 12, 2013

  Actual Average (KFDW) Record (KFDW)
Temperature  
Mean Temperature 76 °F -  
Max Temperature 82 °F 92 °F 100 °F (2011)
Min Temperature 71 °F 70 °F 69 °F (2013)
Cooling Degree Days 12    
Growing Degree Days 26 (Base 50)    
Moisture  
Dew Point 72 °F    
Average Humidity 89    
Maximum Humidity 100    
Minimum Humidity 74    
Precipitation  
Precipitation 0.02 in - - ()
Sea Level Pressure  
Sea Level Pressure 29.96 in    
Wind  
Wind Speed 3 mph (SE)    
Max Wind Speed 8 mph    
Max Gust Speed -    
Visibility 10 miles    
Events Rain , Thunderstorm    
Averages and records for this station are not official NWS values.
T = Trace of Precipitation, MM = Missing Value Source: NWS Daily Summary

Daily Weather History Graph

Daily Weather History Graph

Search for Another Location

Airport or City:

Astronomy

Jul. 12, 2013 Rise Set
Actual Time 6:23 AM EDT 8:40 PM EDT
Civil Twilight 5:55 AM EDT 9:09 PM EDT
Nautical Twilight 5:19 AM EDT 9:44 PM EDT
Astronomical Twilight 4:41 AM EDT 10:22 PM EDT
Moon 10:26 AM EDT (7/12) 11:04 PM EDT (7/12)
Length of Visible Light 15h 13m
Length of Day
14h 16m
Waxing Crescent, 17% of the Moon is Illuminated
Jul 12
Waxing Crescent
Jul 15
First Quarter
Jul 22
Full
Jul 29
Last Quarter
Aug 6
New

Hourly Weather History & Observations

Time (EDT) Temp. Heat Index Dew Point Humidity Pressure Visibility Wind Dir Wind Speed Gust Speed Precip Events Conditions
12:15 AM - - - N/A% 29.94 in 10.0 mi South 4.6 mph - N/A Rain Light Rain
12:35 AM - - - N/A% 29.94 in 10.0 mi Calm Calm - N/A Thunderstorm Unknown
12:55 AM - - - N/A% 29.95 in 10.0 mi SSE 4.6 mph - N/A   Clear
1:15 AM - - - N/A% 29.94 in 10.0 mi SSE 3.5 mph - N/A   Clear
1:35 AM - - - N/A% 29.95 in 10.0 mi SSE 3.5 mph - N/A   Scattered Clouds
1:55 AM - - - N/A% 29.96 in 10.0 mi South 3.5 mph - N/A   Mostly Cloudy
2:15 AM - - - N/A% 29.95 in 7.0 mi South 3.5 mph - N/A   Mostly Cloudy
2:35 AM - - - N/A% 29.96 in 7.0 mi SSE 3.5 mph - N/A   Mostly Cloudy
2:55 AM - - - N/A% 29.94 in 10.0 mi South 3.5 mph - N/A   Mostly Cloudy
3:15 AM - - - N/A% 29.93 in 10.0 mi South 4.6 mph - N/A   Mostly Cloudy
3:35 AM - - - N/A% 29.93 in 10.0 mi South 6.9 mph - N/A   Mostly Cloudy
3:55 AM - - - N/A% 29.93 in 10.0 mi West 4.6 mph - N/A   Overcast
4:15 AM - - - N/A% 29.92 in 10.0 mi SW 4.6 mph - N/A   Mostly Cloudy
4:35 AM - - - N/A% 29.92 in 10.0 mi West 3.5 mph - N/A   Mostly Cloudy
4:55 AM - - - N/A% 29.91 in 10.0 mi WSW 4.6 mph - N/A   Mostly Cloudy
5:15 AM - - - N/A% 29.91 in 10.0 mi WSW 4.6 mph - N/A   Mostly Cloudy
5:35 AM - - - N/A% 29.92 in 10.0 mi West 3.5 mph - 0.01 in   Scattered Clouds
5:55 AM - - - N/A% 29.93 in 10.0 mi Calm Calm - 0.01 in   Clear
6:15 AM - - - N/A% 29.93 in 10.0 mi Calm Calm - N/A   Clear
6:35 AM - - - N/A% 29.93 in 10.0 mi Calm Calm - N/A   Scattered Clouds
6:55 AM 71.6 °F - 71.6 °F 100% 29.94 in 10.0 mi Calm Calm - N/A   Scattered Clouds
7:15 AM 71.6 °F - 71.6 °F 100% 29.95 in 10.0 mi Calm Calm - N/A   Clear
7:35 AM 71.6 °F - 71.6 °F 100% 29.95 in 10.0 mi Calm Calm - N/A   Clear
7:55 AM 71.6 °F - 71.6 °F 100% 29.96 in 10.0 mi Calm Calm - N/A   Mostly Cloudy
8:15 AM 71.6 °F - 71.6 °F 100% 29.96 in 10.0 mi Calm Calm - N/A   Mostly Cloudy
8:35 AM 71.6 °F - 71.6 °F 100% 29.96 in 10.0 mi Calm Calm - N/A   Scattered Clouds
8:55 AM 71.6 °F - 71.6 °F 100% 29.97 in 10.0 mi North 3.5 mph - N/A   Mostly Cloudy
9:15 AM 73.4 °F - 73.4 °F 100% 29.97 in 10.0 mi Calm Calm - N/A   Overcast
9:35 AM 73.4 °F - 73.4 °F 100% 29.97 in 10.0 mi Calm Calm - N/A   Overcast
9:55 AM 73.4 °F - 73.4 °F 100% 29.97 in 10.0 mi Calm Calm - N/A   Overcast
10:15 AM 73.4 °F - 73.4 °F 100% 29.97 in 10.0 mi Calm Calm - N/A   Overcast
10:35 AM 73.4 °F - 73.4 °F 100% 29.97 in 10.0 mi Calm Calm - N/A   Overcast
10:55 AM 75.2 °F - 73.4 °F 94% 29.98 in 10.0 mi Calm Calm - N/A   Overcast
11:15 AM 77.0 °F - 73.4 °F 89% 29.98 in 10.0 mi Calm Calm - N/A   Overcast
11:35 AM 77.0 °F - 73.4 °F 89% 29.98 in 10.0 mi Calm Calm - N/A   Overcast
11:55 AM 77.0 °F - 73.4 °F 89% 29.98 in 10.0 mi SW 3.5 mph - N/A   Overcast
12:15 PM 78.8 °F - 73.4 °F 83% 29.98 in 10.0 mi SSW 3.5 mph - N/A   Overcast
12:35 PM 78.8 °F - 73.4 °F 83% 29.97 in 10.0 mi Calm Calm - N/A   Overcast
12:55 PM 78.8 °F - 73.4 °F 83% 29.97 in 10.0 mi Calm Calm - N/A   Overcast
1:15 PM 78.8 °F - 73.4 °F 83% 29.97 in 10.0 mi Calm Calm - N/A   Overcast
1:35 PM 78.8 °F - 73.4 °F 83% 29.97 in 10.0 mi South 3.5 mph - N/A   Overcast
1:55 PM 78.8 °F - 73.4 °F 83% 29.96 in 10.0 mi South 4.6 mph - N/A   Overcast
2:15 PM 80.6 °F 85.4 °F 73.4 °F 79% 29.96 in 10.0 mi SSE 5.8 mph - N/A   Overcast
2:35 PM 80.6 °F 85.4 °F 73.4 °F 79% 29.96 in 10.0 mi SSW 4.6 mph - N/A   Overcast
2:55 PM 80.6 °F 85.4 °F 73.4 °F 79% 29.96 in 10.0 mi SSE 3.5 mph - N/A   Overcast
3:15 PM 80.6 °F 85.4 °F 73.4 °F 79% 29.96 in 10.0 mi SSE 5.8 mph - N/A   Overcast
3:35 PM 80.6 °F 85.4 °F 73.4 °F 79% 29.95 in 10.0 mi South 3.5 mph - N/A   Mostly Cloudy
3:55 PM 82.4 °F 88.2 °F 73.4 °F 74% 29.96 in 10.0 mi SSE 3.5 mph - N/A   Overcast
4:15 PM 80.6 °F 85.4 °F 73.4 °F 79% 29.95 in 10.0 mi Calm Calm - N/A   Mostly Cloudy
4:35 PM 80.6 °F 85.4 °F 73.4 °F 79% 29.93 in 10.0 mi Calm Calm - N/A   Mostly Cloudy
4:55 PM 82.4 °F 88.2 °F 73.4 °F 74% 29.93 in 10.0 mi ESE 3.5 mph - 0.01 in   Overcast
5:15 PM 78.8 °F - 71.6 °F 78% 29.94 in 10.0 mi NE 8.1 mph - N/A   Overcast
5:35 PM 77.0 °F - 73.4 °F 89% 29.96 in 10.0 mi NNE 5.8 mph - N/A   Overcast
5:55 PM 77.0 °F - 73.4 °F 89% 29.97 in 10.0 mi NE 3.5 mph - N/A   Overcast
6:15 PM 78.8 °F - 73.4 °F 83% 29.97 in 10.0 mi East 3.5 mph - N/A Rain Light Rain
6:35 PM 78.8 °F - 73.4 °F 83% 29.97 in 10.0 mi NE 6.9 mph - N/A   Light Drizzle
6:55 PM 77.0 °F - 71.6 °F 83% 29.97 in 10.0 mi East 5.8 mph - N/A   Scattered Clouds
7:15 PM 78.8 °F - 71.6 °F 78% 29.97 in 10.0 mi ENE 4.6 mph - N/A   Scattered Clouds
7:35 PM 77.0 °F - 71.6 °F 83% 29.98 in 10.0 mi ENE 5.8 mph - N/A Thunderstorm Clear
7:55 PM 77.0 °F - 71.6 °F 83% 29.98 in 10.0 mi ENE 5.8 mph - N/A   Clear
8:15 PM 75.2 °F - 73.4 °F 94% 29.98 in 10.0 mi ENE 6.9 mph - N/A   Clear
8:35 PM 75.2 °F - 71.6 °F 89% 29.94 in 10.0 mi East 6.9 mph - N/A   Clear
8:55 PM 75.2 °F - 69.8 °F 83% 29.95 in 10.0 mi ESE 3.5 mph - N/A   Clear
9:15 PM 73.4 °F - 71.6 °F 94% 29.96 in 10.0 mi SE 3.5 mph - N/A   Clear
9:35 PM 73.4 °F - 69.8 °F 88% 29.99 in 10.0 mi SE 4.6 mph - N/A   Clear
9:55 PM 73.4 °F - 69.8 °F 88% 29.99 in 10.0 mi ESE 3.5 mph - N/A   Clear
10:15 PM 73.4 °F - 69.8 °F 88% 29.99 in 10.0 mi SSE 3.5 mph - N/A   Clear
10:35 PM 73.4 °F - 69.8 °F 88% 29.99 in 10.0 mi NNE 3.5 mph - N/A   Clear
10:55 PM 71.6 °F - 71.6 °F 100% 30.01 in 10.0 mi NNE 4.6 mph - N/A   Clear
11:15 PM 71.6 °F - 71.6 °F 100% 30.02 in 10.0 mi NE 8.1 mph - N/A   Clear
11:35 PM 71.6 °F - 71.6 °F 100% 30.02 in 10.0 mi NE 5.8 mph - N/A   Clear
11:55 PM 71.6 °F - 71.6 °F 100% 30.02 in 10.0 mi ENE 3.5 mph - N/A   Clear